Location: Tamazert
(32.6352°N, 5.2072°W)
Time: 04:02:21
(UTC+00:00)

Vanguard 2 Rocket - Pass Details

Date: 07 October 2022
Orbit: 555 x 3321 km, 32.9° (Epoch: 05 December)

Event Time Altitude Azimuth Distance (km) Brightness Sun altitude
Rises 18:25:21 0° 209° (SSW) 7,051 11.9 -6.6°
Reaches altitude 10° 18:30:41 10° 201° (SSW) 6,193 11.4 -7.7°
Maximum altitude 18:47:42 35° 144° (SE) 4,344 10.0 -11.3°
Enters shadow 18:59:40 16° 93° (E) 4,961 9.9 -13.8°
Drops below altitude 10° 19:02:01 10° 87° (E) 5,291 - -14.3°
Sets 19:06:01 0° 78° (ENE) 5,963 - -15.2°
